When you browse on this site, cookies collect data to enhance your experience and personalize the content and advertising you see.
Visit our Privacy Policy to learn more. By continuing to use the site, you agree to this use of cookies and data.
  • In Latvia
  • List of Countries
  • For 7 days
  • Water Temperature
  • Weather Map
  • Weather Widgets
  • user-avatar
    Login

    Hourly Weather Spokoynyy

    Today, 19 August, Monday

    Time Temperature Precipitation Wind Pressure Humidity
    00:00 +20°C° 0.4 mm 2 mps 739 mmHg 97%
    01:00 +20°C° 0.1 mm 2 mps 739 mmHg 97%
    02:00 +21°C° 0.1 mm 1 mps 739 mmHg 96%
    03:00 +20°C° 0.1 mm 1 mps 740 mmHg 96%
    04:00 +20°C° 0.1 mm 1 mps 740 mmHg 96%
    05:00 +20°C° 0.1 mm 1 mps 740 mmHg 95%
    06:00 +18°C° 0.1 mm 0 mps 740 mmHg 95%
    07:00 +22°C° 0 mm 1 mps 740 mmHg 91%
    08:00 +23°C° 0 mm 1 mps 740 mmHg 87%
    09:00 +25°C° 0 mm 1 mps 741 mmHg 83%
    10:00 +26°C° 0 mm 1 mps 741 mmHg 78%
    11:00 +27°C° 0 mm 2 mps 741 mmHg 73%
    12:00 +29°C° 0 mm 2 mps 741 mmHg 67%
    13:00 +29°C° 0.2 mm 2 mps 741 mmHg 66%
    14:00 +30°C° 0.2 mm 2 mps 741 mmHg 66%
    15:00 +30°C° 0.2 mm 2 mps 741 mmHg 65%
    16:00 +30°C° 0.2 mm 2 mps 741 mmHg 68%
    17:00 +29°C° 0.2 mm 2 mps 740 mmHg 72%
    18:00 +29°C° 0.2 mm 2 mps 740 mmHg 75%
    19:00 +28°C° 0 mm 2 mps 740 mmHg 78%
    20:00 +26°C° 0 mm 1 mps 741 mmHg 81%
    21:00 +25°C° 0 mm 1 mps 741 mmHg 84%
    22:00 +25°C° 0 mm 1 mps 741 mmHg 86%
    23:00 +24°C° 0 mm 1 mps 741 mmHg 87%

    Tomorrow, 20 August, Tuesday

    Time Temperature Precipitation Wind Pressure Humidity
    00:00 +23°C° 0 mm 1 mps 741 mmHg 88%
    01:00 +23°C° 0 mm 1 mps 741 mmHg 89%
    02:00 +23°C° 0 mm 1 mps 741 mmHg 89%
    03:00 +21°C° 0 mm 0 mps 740 mmHg 90%
    04:00 +20°C° 0 mm 0 mps 740 mmHg 90%
    05:00 +20°C° 0 mm 0 mps 740 mmHg 90%
    06:00 +20°C° 0 mm 0 mps 740 mmHg 91%
    07:00 +22°C° 0 mm 0 mps 741 mmHg 82%
    08:00 +27°C° 0 mm 1 mps 741 mmHg 73%
    09:00 +29°C° 0 mm 1 mps 741 mmHg 65%
    10:00 +30°C° 0 mm 1 mps 741 mmHg 58%
    11:00 +32°C° 0 mm 2 mps 741 mmHg 52%
    12:00 +34°C° 0 mm 2 mps 741 mmHg 45%
    13:00 +35°C° 0 mm 2 mps 741 mmHg 42%
    14:00 +35°C° 0 mm 3 mps 740 mmHg 40%
    15:00 +36°C° 0 mm 3 mps 740 mmHg 38%
    16:00 +35°C° 0 mm 3 mps 740 mmHg 40%
    17:00 +34°C° 0 mm 2 mps 740 mmHg 43%
    18:00 +32°C° 0 mm 2 mps 740 mmHg 46%
    19:00 +30°C° 0 mm 1 mps 740 mmHg 50%
    20:00 +28°C° 0 mm 1 mps 740 mmHg 54%
    21:00 +26°C° 0 mm 1 mps 740 mmHg 57%
    22:00 +26°C° 0 mm 1 mps 740 mmHg 59%
    23:00 +26°C° 0 mm 1 mps 740 mmHg 61%

    Day after tomorrow, 21 August, Wednesday

    Time Temperature Precipitation Wind Pressure Humidity
    00:00 +26°C° 0 mm 1 mps 740 mmHg 62%
    01:00 +25°C° 0 mm 1 mps 740 mmHg 67%
    02:00 +24°C° 0 mm 1 mps 740 mmHg 71%
    03:00 +24°C° 0 mm 1 mps 740 mmHg 76%
    04:00 +23°C° 0 mm 1 mps 740 mmHg 81%
    05:00 +23°C° 0 mm 1 mps 739 mmHg 85%
    06:00 +23°C° 0 mm 1 mps 739 mmHg 90%
    07:00 +25°C° 0 mm 1 mps 740 mmHg 81%
    08:00 +27°C° 0 mm 1 mps 740 mmHg 73%
    09:00 +29°C° 0 mm 1 mps 740 mmHg 64%
    10:00 +30°C° 0 mm 1 mps 740 mmHg 56%
    11:00 +32°C° 0 mm 2 mps 740 mmHg 49%
    12:00 +34°C° 0 mm 3 mps 740 mmHg 41%
    13:00 +35°C° 0 mm 3 mps 739 mmHg 37%
    14:00 +36°C° 0 mm 4 mps 739 mmHg 32%
    15:00 +37°C° 0 mm 5 mps 739 mmHg 27%
    16:00 +36°C° 0 mm 4 mps 738 mmHg 31%
    17:00 +35°C° 0 mm 4 mps 738 mmHg 34%
    18:00 +33°C° 0 mm 4 mps 738 mmHg 38%
    19:00 +30°C° 0.1 mm 3 mps 738 mmHg 44%
    20:00 +27°C° 0.1 mm 2 mps 738 mmHg 51%
    21:00 +25°C° 0.1 mm 2 mps 738 mmHg 58%
    22:00 +24°C° 0.2 mm 2 mps 738 mmHg 59%
    23:00 +24°C° 0.2 mm 1 mps 738 mmHg 60%

    22 August, Thursday

    Time Temperature Precipitation Wind Pressure Humidity
    00:00 +24°C° 0.2 mm 1 mps 738 mmHg 62%
    01:00 +23°C° 0 mm 1 mps 738 mmHg 62%
    02:00 +23°C° 0 mm 1 mps 738 mmHg 63%
    03:00 +23°C° 0 mm 1 mps 738 mmHg 63%
    04:00 +22°C° 0.1 mm 1 mps 738 mmHg 67%
    05:00 +22°C° 0.1 mm 1 mps 738 mmHg 71%
    06:00 +22°C° 0.1 mm 1 mps 738 mmHg 75%
    07:00 +23°C° 0.1 mm 1 mps 738 mmHg 70%
    08:00 +25°C° 0.1 mm 1 mps 738 mmHg 66%
    09:00 +26°C° 0.1 mm 2 mps 738 mmHg 62%
    10:00 +28°C° 0 mm 3 mps 738 mmHg 55%
    11:00 +29°C° 0 mm 4 mps 738 mmHg 47%
    12:00 +32°C° 0 mm 4 mps 738 mmHg 39%
    13:00 +32°C° 0 mm 5 mps 738 mmHg 39%
    14:00 +32°C° 0 mm 5 mps 738 mmHg 39%
    15:00 +32°C° 0 mm 5 mps 738 mmHg 40%
    16:00 +32°C° 0 mm 4 mps 738 mmHg 43%
    17:00 +30°C° 0 mm 3 mps 738 mmHg 47%
    18:00 +29°C° 0 mm 3 mps 738 mmHg 50%
    19:00 +28°C° 0.1 mm 3 mps 738 mmHg 54%
    20:00 +26°C° 0.1 mm 2 mps 738 mmHg 57%
    21:00 +25°C° 0.1 mm 2 mps 738 mmHg 61%
    22:00 +24°C° 0.2 mm 2 mps 738 mmHg 65%
    23:00 +23°C° 0.2 mm 2 mps 738 mmHg 69%

    23 August, Friday

    Time Temperature Precipitation Wind Pressure Humidity
    00:00 +23°C° 0.2 mm 1 mps 738 mmHg 74%
    01:00 +23°C° 0.1 mm 1 mps 738 mmHg 76%
    02:00 +22°C° 0.1 mm 1 mps 738 mmHg 78%
    03:00 +22°C° 0.1 mm 1 mps 738 mmHg 80%
    04:00 +22°C° 0 mm 1 mps 738 mmHg 81%
    05:00 +22°C° 0 mm 1 mps 738 mmHg 81%
    06:00 +22°C° 0 mm 1 mps 738 mmHg 82%
    07:00 +24°C° 0 mm 1 mps 738 mmHg 74%
    08:00 +25°C° 0 mm 1 mps 738 mmHg 67%
    09:00 +27°C° 0 mm 1 mps 738 mmHg 60%
    10:00 +29°C° 0 mm 2 mps 739 mmHg 52%
    11:00 +31°C° 0 mm 2 mps 739 mmHg 44%
    12:00 +33°C° 0 mm 3 mps 739 mmHg 37%
    13:00 +34°C° 0 mm 3 mps 739 mmHg 36%
    14:00 +34°C° 0 mm 3 mps 739 mmHg 36%
    15:00 +35°C° 0 mm 3 mps 738 mmHg 35%
    16:00 +34°C° 0 mm 3 mps 738 mmHg 38%
    17:00 +34°C° 0 mm 3 mps 738 mmHg 41%
    18:00 +33°C° 0 mm 3 mps 738 mmHg 44%
    19:00 +30°C° 0.1 mm 3 mps 738 mmHg 49%
    20:00 +28°C° 0.1 mm 2 mps 738 mmHg 54%
    21:00 +26°C° 0.1 mm 2 mps 738 mmHg 59%
    22:00 +25°C° 0 mm 2 mps 738 mmHg 60%
    23:00 +24°C° 0 mm 1 mps 739 mmHg 62%

    24 August, Saturday

    Time Temperature Precipitation Wind Pressure Humidity
    00:00 +24°C° 0 mm 1 mps 739 mmHg 64%
    01:00 +23°C° 0 mm 1 mps 739 mmHg 66%
    02:00 +23°C° 0 mm 1 mps 739 mmHg 68%
    03:00 +22°C° 0 mm 1 mps 738 mmHg 70%
    04:00 +22°C° 0 mm 1 mps 739 mmHg 72%
    05:00 +22°C° 0 mm 1 mps 739 mmHg 74%
    06:00 +22°C° 0 mm 1 mps 739 mmHg 76%
    07:00 +24°C° 0 mm 1 mps 739 mmHg 68%
    08:00 +27°C° 0 mm 1 mps 739 mmHg 60%
    09:00 +28°C° 0 mm 0 mps 740 mmHg 52%
    10:00 +31°C° 0 mm 1 mps 740 mmHg 44%
    11:00 +34°C° 0 mm 2 mps 740 mmHg 37%
    12:00 +36°C° 0 mm 2 mps 740 mmHg 30%
    13:00 +37°C° 0 mm 3 mps 740 mmHg 27%
    14:00 +37°C° 0 mm 3 mps 739 mmHg 25%
    15:00 +38°C° 0 mm 4 mps 739 mmHg 22%
    16:00 +37°C° 0 mm 3 mps 739 mmHg 26%
    17:00 +36°C° 0 mm 2 mps 739 mmHg 31%
    18:00 +33°C° 0 mm 1 mps 739 mmHg 35%
    19:00 +31°C° 0 mm 1 mps 739 mmHg 37%
    20:00 +29°C° 0 mm 1 mps 739 mmHg 39%
    21:00 +27°C° 0 mm 1 mps 740 mmHg 40%
    22:00 +27°C° 0 mm 1 mps 740 mmHg 42%
    23:00 +26°C° 0 mm 1 mps 740 mmHg 44%
    Show more